Probability
3 3 1 0 0 0 0 0 0 0 0 0 0 0 0 0 0 0 0 0 2 6 11 12 11 10 10 10 10 8 5 3 2 2 2 4 5 7 7 5 4 5 6
4 3 2 0 0 0 0 0 0 0 0 0 0 0 0 0 0 0 0 0 2 5 8 9 8 7 7 7 8 8 7 6 4 3 4 5 6 7 7 5 4 5 6
3 2 1 0 0 0 0 1 1 1 1 1 0 0 0 0 0 0 0 0 1 3 4 5 4 5 5 4 4 6 8 9 8 7 8 8 7 7 6 5 5 6 7
1 1 0 0 0 0 0 1 2 2 2 1 0 0 0 0 0 0 0 0 0 1 2 3 4 5 5 3 3 4 8 12 13 12 11 9 8 8 6 5 5 5 6
0 0 0 0 0 0 0 1 2 2 1 1 0 0 0 0 0 0 0 0 0 0 1 2 4 5 6 5 4 4 7 12 13 12 11 10 10 10 8 5 4 3 3
1 1 0 0 0 0 0 1 1 1 0 0 0 0 0 0 0 0 0 0 0 0 0 2 4 5 5 4 4 4 6 8 8 8 9 10 11 11 11 8 5 3 3
1 1 1 0 0 0 0 0 0 0 0 0 0 0 0 0 0 0 0 0 0 0 0 2 3 3 2 2 2 2 3 3 3 4 6 8 9 10 11 11 7 4 4
2 2 2 2 1 1 1 0 0 0 0 0 0 0 0 0 0 0 0 0 0 0 0 1 1 1 1 0 1 1 0 1 1 3 4 5 6 8 10 10 8 6 5
3 3 3 4 3 3 3 1 1 1 0 0 0 0 0 0 0 0 0 0 0 0 0 0 0 0 0 0 0 0 0 1 1 3 3 3 5 6 7 8 8 7 8
4 5 6 6 6 6 6 4 3 2 1 0 0 0 0 0 0 0 0 0 0 0 0 0 0 0 0 0 0 0 0 1 2 3 3 3 3 4 5 5 6 8 8
6 7 9 9 9 9 8 7 5 3 1 0 0 0 0 0 0 0 0 0 0 0 0 0 0 0 0 0 0 0 0 1 1 2 2 2 3 3 4 4 4 5 5
5 6 9 10 11 11 10 8 5 3 2 0 0 0 0 0 0 0 0 0 0 0 0 0 0 0 0 0 0 0 0 0 0 0 0 1 2 3 4 4 3 3 2
3 4 6 8 9 9 9 7 6 4 1 0 0 0 0 0 0 0 0 0 0 0 0 0 0 0 0 0 1 0 0 0 0 0 0 0 1 2 2 2 2 1 1
1 2 3 4 6 7 7 7 6 5 2 0 0 0 0 0 0 0 0 0 0 0 0 0 0 0 0 0 0 0 0 0 0 0 0 0 0 1 1 1 1 0 0
2 1 1 2 4 6 6 6 6 5 3 1 0 1 1 1 1 0 0 0 0 0 0 0 0 0 0 0 0 0 0 0 0 0 0 0 0 0 0 0 0 0 0
3 3 2 2 3 5 6 6 6 5 4 2 2 2 2 2 1 0 0 0 0 0 0 0 0 0 0 0 0 0 0 0 0 0 0 0 0 0 0 0 0 0 0
3 3 2 2 3 4 4 4 5 4 3 3 3 3 2 1 1 0 0 0 0 0 0 0 0 0 0 0 0 0 0 0 0 0 0 0 0 0 0 0 0 0 0
3 2 2 2 3 2 1 2 2 3 3 2 2 2 1 0 0 0 0 0 0 0 0 0 0 0 0 0 0 0 0 0 0 0 0 0 0 0 0 0 0 0 0
3 3 2 2 2 1 0 1 2 2 1 1 1 1 0 0 0 0 0 0 0 0 0 0 0 0 0 0 0 0 0 0 0 0 0 0 0 0 0 0 0 0 0
2 2 2 1 1 0 0 1 2 1 0 0 0 0 0 0 0 0 0 0 0 0 0 0 0 0 0 0 0 0 0 0 0 0 0 0 0 0 0 0 0 0 0
1 1 1 0 0 0 0 1 1 0 0 0 0 0 0 0 0 0 0 0 0 0 0 0 0 0 0 0 0 0 0 0 0 0 0 0 0 0 0 0 0 0 0
0 0 0 0 0 0 0 0 0 0 0 0 0 0 0 0 0 0 0 0 0 0 0 0 0 0 0 0 0 0 0 0 0 0 0 0 0 0 0 0 0 0 0
0 0 0 0 0 0 0 0 0 0 0 0 0 0 0 0 0 0 0 0 0 0 0 0 0 0 0 0 0 0 0 0 0 0 0 0 0 0 0 0 0 0 0
0 0 0 0 0 0 0 0 0 0 0 0 0 0 0 0 0 0 0 0 0 0 0 0 0 0 0 0 0 0 0 0 0 0 0 0 0 0 0 0 0 0 0
0 0 0 0 0 0 0 0 0 0 0 0 0 0 0 0 0 0 0 0 0 0 0 0 0 0 0 0 0 0 0 0 0 0 0 0 0 0 0 0 0 0 0
0 0 0 0 0 0 0 0 0 0 0 0 0 0 0 0 0 0 0 0 0 0 0 0 0 0 0 0 0 0 0 0 0 0 0 0 0 0 0 0 0 0 0
Wind_Speed
1 1 1 0 0 0 0 0 1 1 2 2 2 2 3 3 3 2 2 5 4 4 5 5 6 8 8 9 9 9 9 10 10 10 10 11 11 12 12 12 13 13 13
2 2 1 1 0 0 0 0 0 1 1 2 2 3 3 3 3 2 2 3 4 4 4 4 5 6 7 8 8 8 8 9 10 10 11 11 10 11 11 12 12 13 13
3 2 1 1 0 0 0 0 1 1 1 2 3 3 2 2 2 2 2 2 2 3 4 4 5 5 6 7 7 7 8 8 9 9 9 10 10 10 10 11 12 12 13
3 2 1 1 0 0 1 1 1 1 2 2 2 3 2 2 2 2 1 1 1 2 3 4 4 4 4 5 6 7 6 6 6 7 7 7 8 8 9 10 11 11 12
3 2 2 1 1 1 1 0 1 0 1 2 2 2 2 2 2 2 1 2 2 1 1 3 4 4 4 4 5 5 5 5 5 6 7 7 8 8 8 8 10 11 11
3 3 2 1 1 1 0 0 0 0 0 2 2 2 2 2 1 1 2 2 2 2 1 1 2 3 4 4 4 4 4 4 5 6 6 7 7 7 7 8 9 10 11
3 2 2 1 1 1 1 1 1 0 1 1 1 2 3 2 2 1 2 1 2 2 2 1 1 1 2 4 4 4 5 5 5 6 6 6 6 7 7 8 9 9 11
3 3 2 2 2 1 1 1 1 1 1 1 1 1 3 3 3 2 2 2 2 2 2 2 2 2 2 2 3 5 5 6 7 6 6 6 6 6 7 7 9 9 9
2 2 3 2 2 2 2 2 2 2 0 0 0 1 1 2 3 3 2 2 3 2 3 3 3 3 3 2 3 4 5 5 6 7 7 6 5 6 6 7 8 9 9
2 2 2 2 2 2 2 2 2 2 2 1 0 0 1 2 1 3 3 2 3 3 3 3 3 3 3 3 3 4 4 5 6 6 6 6 6 6 6 7 7 7 8
1 1 1 2 2 2 2 2 1 2 2 2 1 1 1 1 2 2 4 4 3 3 3 3 3 3 3 3 3 4 5 4 5 6 6 6 7 7 7 7 8 8 8
0 0 1 1 1 1 2 2 2 2 2 2 2 2 2 1 2 2 3 4 4 4 4 3 3 3 2 2 4 5 6 5 4 5 6 6 7 7 7 7 7 7 7
0 1 0 1 1 2 2 2 2 2 2 2 2 2 2 3 2 2 2 3 4 4 3 3 3 3 3 2 3 6 6 5 5 5 5 5 6 7 8 7 8 7 7
1 1 1 1 1 1 1 1 1 2 2 2 3 3 2 3 2 2 2 2 3 3 3 4 2 3 2 3 4 5 4 5 5 5 5 5 6 6 7 7 7 7 7
1 1 0 0 1 1 1 1 1 2 2 2 3 3 2 2 2 3 3 3 3 4 4 3 3 3 3 3 4 4 4 5 6 6 5 6 6 6 7 7 7 7 7
1 0 0 1 1 1 1 1 1 2 2 2 2 2 2 2 2 2 2 3 3 4 4 3 3 4 4 4 4 4 4 6 6 6 6 6 6 7 8 8 8 8 8
1 0 1 1 1 1 1 1 2 2 2 3 2 2 3 3 2 2 2 2 3 3 5 4 3 3 4 4 4 3 3 4 4 6 6 6 6 7 7 7 8 9 9
1 1 1 1 1 1 1 1 2 2 2 3 3 3 4 3 3 3 2 3 3 4 4 5 4 3 4 4 4 4 4 3 4 5 6 6 6 7 6 6 6 8 8
0 0 0 1 1 2 2 2 2 2 3 3 3 3 4 3 4 3 3 3 3 3 3 4 4 3 3 3 3 3 4 3 4 4 5 6 6 6 6 6 6 6 6
1 1 1 1 2 2 2 2 2 2 3 3 3 4 4 4 5 5 4 4 3 3 3 3 4 3 3 3 2 3 3 3 3 3 4 4 5 6 6 6 6 6 6
1 1 1 2 2 2 2 2 2 3 3 4 4 4 5 5 6 5 4 4 3 3 3 3 3 3 3 3 3 2 3 3 3 3 3 3 3 3 4 5 6 6 6
1 1 2 2 2 2 3 4 3 3 3 3 4 5 5 5 6 6 6 6 5 4 4 3 3 4 5 4 3 2 2 2 3 2 2 3 2 4 4 4 5 6 7
1 2 2 2 3 4 5 5 4 3 3 3 4 4 4 5 5 4 5 5 5 6 7 5 5 6 5 4 3 4 4 4 4 3 2 4 3 4 4 4 7 8 8
1 2 3 3 3 5 6 5 5 3 3 4 4 4 4 5 5 4 4 4 5 5 5 5 6 7 6 5 5 5 4 4 5 4 4 4 3 4 4 4 6 8 9
2 2 2 3 4 5 6 5 4 2 3 4 4 4 4 4 6 5 3 4 6 6 5 6 7 8 8 8 6 3 3 3 4 3 3 4 3 3 3 4 4 7 8
2 2 3 3 3 4 5 5 3 1 3 4 4 4 5 5 6 5 3 4 5 6 5 6 5 5 5 6 7 6 5 4 3 3 3 4 3 2 3 3 3 3 4
Wind_Direction
153 150 136 94 49 33 20 3 350 337 325 326 314 309 301 295 290 280 284 292 292 286 276 268 267 263 258 249 242 240 236 234 234 234 231 230 228 225 220 217 215 210 207
158 153 136 98 40 323 306 310 307 307 301 309 311 309 298 293 286 276 276 288 294 298 289 282 275 271 264 262 252 247 244 238 237 237 236 234 229 225 222 219 216 212 209
154 149 147 143 230 287 308 15 351 345 334 326 313 310 306 303 302 295 289 290 310 314 306 295 288 284 274 267 261 256 252 247 244 240 237 233 229 227 225 223 219 215 212
151 145 144 172 151 64 61 67 21 359 337 327 312 306 313 314 317 313 315 320 321 317 318 317 307 301 296 284 272 264 259 254 249 244 239 236 233 229 226 224 221 216 214
153 148 157 182 134 86 53 29 50 357 319 321 307 305 316 318 323 331 328 315 308 306 309 319 322 316 308 300 287 272 266 262 257 250 246 239 231 230 226 225 225 222 217
161 156 157 161 140 123 85 58 85 19 307 316 320 334 326 322 327 319 305 315 311 302 304 322 326 320 312 303 306 295 274 268 265 260 254 244 230 225 229 228 228 228 225
166 162 170 163 157 159 184 185 156 39 357 1 12 343 332 336 325 308 309 314 314 305 300 300 299 305 302 303 308 297 282 274 271 265 257 249 237 231 231 234 230 232 231
174 177 174 177 167 160 147 147 145 125 4 35 69 23 342 336 336 323 318 306 308 306 302 294 284 277 282 290 289 284 276 274 273 270 266 257 245 237 235 240 238 237 236
182 180 177 174 169 168 182 197 186 160 189 321 107 140 169 275 310 314 318 317 314 306 302 294 281 273 271 272 276 286 282 278 277 274 270 261 252 243 239 242 244 242 240
186 177 169 171 173 178 188 209 188 181 167 230 290 215 215 217 257 303 308 309 310 305 305 301 289 276 269 266 270 281 291 287 285 283 278 265 252 248 243 244 246 244 240
166 174 166 165 179 192 204 209 197 189 185 201 213 225 231 238 229 246 290 311 315 300 298 289 279 273 272 269 270 275 279 274 282 283 282 270 254 249 245 244 244 245 241
83 222 150 172 199 205 218 223 213 206 206 208 214 211 206 220 236 235 264 293 301 298 296 286 280 278 275 272 280 293 286 273 270 273 276 271 259 251 252 250 247 245 243
252 257 214 210 225 231 236 224 213 228 221 222 228 226 223 230 227 227 244 273 285 292 293 282 267 270 272 274 280 294 289 284 274 271 270 271 267 260 256 254 253 248 243
245 247 217 217 240 253 257 234 228 240 230 236 245 237 235 243 229 223 227 250 287 290 282 281 280 258 267 273 273 281 276 275 277 272 267 266 264 264 261 258 257 250 242
228 239 245 245 268 269 260 244 243 254 248 248 249 244 243 250 237 235 233 230 246 282 289 280 279 275 275 272 271 268 264 269 276 275 271 266 262 259 256 257 257 248 240
186 163 323 323 317 296 278 257 267 263 250 258 246 245 251 251 250 241 233 235 231 246 270 270 270 279 279 279 277 271 269 274 274 274 275 272 265 258 253 249 247 241 237
178 214 257 287 300 307 309 297 281 276 269 277 268 254 262 257 257 256 243 241 236 231 260 280 275 281 276 275 282 276 269 265 268 270 275 274 270 265 259 250 243 234 231
207 215 232 260 280 292 294 282 289 293 280 279 280 276 276 272 265 263 256 258 251 233 243 273 286 280 272 270 271 272 273 267 266 268 266 267 267 267 263 256 247 236 229
188 239 232 258 277 284 286 283 278 291 289 280 275 271 276 275 278 276 267 264 261 252 237 253 275 275 278 273 275 276 272 271 272 264 258 259 262 264 262 256 248 237 226
186 233 258 262 269 277 281 288 292 296 297 295 289 279 275 268 267 271 272 269 265 264 253 253 268 279 279 279 262 276 288 287 284 277 270 264 259 261 255 248 243 237 227
230 234 253 278 288 291 287 295 295 297 301 305 306 297 285 280 270 264 266 269 267 264 263 259 268 279 283 280 269 261 272 289 285 270 278 272 262 260 255 245 239 234 229
300 281 272 280 296 296 302 299 292 290 291 295 302 306 303 296 296 290 278 267 252 250 257 258 264 267 271 268 263 258 263 278 283 259 258 275 251 257 256 246 239 233 229
300 295 290 292 293 293 293 293 294 281 276 282 289 300 309 309 309 298 293 288 272 255 239 237 253 261 263 260 255 258 251 250 257 259 247 270 258 259 256 245 233 232 231
270 273 283 289 291 292 291 288 295 294 288 287 283 281 289 301 303 299 299 300 294 283 260 242 245 256 259 255 243 247 255 265 269 251 223 250 257 260 270 258 240 233 231
283 283 285 287 288 295 296 295 299 299 296 297 292 284 278 287 297 297 296 296 300 299 282 256 253 260 261 255 242 232 235 238 266 259 207 224 246 257 261 256 245 233 232
272 291 297 291 283 290 298 298 295 271 292 303 311 307 289 285 295 296 282 279 287 291 302 307 297 285 269 258 237 219 220 229 251 264 215 208 230 232 262 246 240 232 230